[[{"header":{"parameterUnit":"m.s-1","parameterCategory":1,"la1":30.2991,"la2":30.254,"lo1":-89.0895,"lo2":-89.0444,"dy":0.0017,"dx":0.0017,"nx":28,"ny":28,"refTime":"2023-10-01T03:00:00:Z","depth":0,"parameterNumber":2,"parameterNumberName":"U-component_of_WINDS"},"data":[0,0,0,0,0,0,0,0,0,0,0,0,0,0,0,0,0,0,0,0,0,0,0,0,0,0,0,0,0,0,0,0,0,0,0,0,0,0,0,0,0,0,0,0,0,0,0,0,0,0,0,0,0,0,0,0,0,0,-3.5535,-3.5535,0,-3.5534,-3.5534,-3.5534,-3.5355,-3.535,-3.5345,-3.5341,-3.5343,-3.5348,-3.5352,0,0,0,0,0,0,0,0,0,0,0,0,0,-3.5386,-3.539,-3.5535,-3.5535,-3.5535,-3.5534,-3.5534,-3.5534,-3.5355,-3.535,-3.5344,-3.5339,-3.5342,-3.5347,-3.5352,0,0,0,0,0,0,0,0,0,0,0,0,0,-3.5425,-3.5391,-3.5535,-3.5446,-3.5438,-3.5534,-3.5534,-3.5534,-3.5357,-3.535,-3.5343,-3.5336,-3.534,-3.5346,-3.5353,-3.5535,0,0,-3.5373,-3.5376,0,0,0,0,0,0,0,0,-3.5423,-3.543,-3.5459,-3.5452,-3.5443,-3.5437,-3.5482,-3.5534,-3.5358,-3.5388,-3.5341,-3.5332,-3.538,-3.5383,-3.5399,-3.5535,-3.5535,-3.5374,-3.5378,-3.5381,-3.5383,0,0,0,0,0,0,0,-3.542,-3.5429,-3.5534,-3.546,-3.545,-3.5407,-3.5404,-3.5491,-3.5424,-3.5385,-3.5371,-3.5374,-3.5375,-3.5393,-3.5397,-3.5535,-3.5374,-3.538,-3.5384,-3.5386,-3.5822,-3.5829,0,0,0,0,0,0,-3.5429,-3.5428,-3.5534,-3.5534,-3.5415,-3.5415,-3.5412,-3.5446,-3.5422,-3.5412,-3.538,-3.5365,-3.5385,-3.539,-3.5397,-3.5609,-3.5381,-3.5387,-3.5391,-3.5814,-3.5824,-3.5832,0,0,0,0,0,0,-3.5427,-3.544,-3.5535,-3.5478,-3.5486,-3.5425,-3.5465,-3.545,-3.5467,-3.5418,-3.5406,-3.541,-3.5379,-3.5387,-3.5502,-3.5607,-3.539,-3.5396,-3.5806,-3.5817,-3.5828,-3.6035,0,0,0,0,0,0,-3.5423,-3.5441,-3.5509,-3.5481,-3.549,-3.564,-3.5471,-3.5455,-3.5479,-3.546,-3.5444,-3.5434,-3.5374,-3.5493,-3.5509,-3.5612,-3.5401,-3.5796,-3.5811,-3.5824,-3.6019,-3.6052,-3.6081,0,0,0,0,0,-3.5418,-3.5568,-3.5513,-3.5527,-3.5574,-3.5646,-3.5652,-3.5579,-3.5488,-3.5557,-3.5525,-3.5435,-3.5592,-3.5506,-3.5522,-3.5629,-3.5789,-3.5807,-3.5823,-3.6005,-3.6046,-3.608,0,0,0,0,0,0,-3.5611,-3.5563,-3.5501,-3.5646,-3.5651,-3.5616,-3.57,-3.5624,-3.5656,-3.5638,-3.5547,-3.5545,-3.5674,-3.5662,-3.5567,-3.5804,-3.5675,-3.5696,-3.5807,-3.5846,-3.5876,-3.5877,-3.5407,0,0,0,0,0,-3.567,-3.5732,-3.5686,-3.5818,-3.5824,-3.5762,-3.5791,-3.5734,-3.5736,-3.5738,-3.5715,-3.5722,-3.5772,-3.5808,-3.5852,-3.6015,-3.601,-3.6097,-3.6128,-3.6154,-3.6174,-3.626,-3.6298,-3.5888,-3.5888,-3.5887,0,0,-3.5794,-3.5774,-3.5819,-3.5857,-3.5854,-3.5921,-3.5765,-3.5843,-3.5892,-3.575,-3.5857,-3.584,-3.5842,-3.5982,-3.6042,-3.5976,-3.6285,-3.6175,-3.6196,-3.6202,-3.6281,-3.632,-3.6355,-3.5899,-3.5897,-3.5895,0,0,-3.6052,-3.6044,-3.6153,-3.6153,-3.6151,-3.6109,-3.6135,-3.6111,-3.6094,-3.6199,-3.6095,-3.6152,-3.6241,-3.6247,-3.6262,-3.6522,-3.6441,-3.6539,-3.6702,-3.6787,-3.682,-3.6848,-3.6942,-3.6977,-3.6559,-3.6559,-3.656,0,-3.6206,-3.6302,-3.6219,-3.6303,-3.6323,-3.6197,-3.6307,-3.6312,-3.6325,-3.6342,-3.6268,-3.6377,-3.6369,-3.6509,-3.6573,-3.6588,-3.6617,-3.6541,-3.6821,-3.6849,-3.6874,-3.6963,-3.6999,-3.6571,-3.657,-3.6569,-3.6567,0,-3.6492,-3.656,-3.6648,-3.6663,-3.6693,-3.679,-3.6723,-3.6763,-3.6703,-3.6669,-3.6779,-3.6764,-3.6804,-3.6832,-3.6775,-3.6965,-3.6924,-3.6837,-3.6705,-3.6927,-3.7009,-3.7042,-3.6589,-3.6584,-3.6581,-3.6578,0,0,-3.6873,-3.684,-3.6874,-3.6879,-3.6867,-3.6919,-3.7011,-3.7047,-3.7084,-3.7098,-3.7173,-3.7251,-3.717,-3.7187,-3.713,-3.7205,-3.7413,-3.7108,-3.7107,-3.7167,-3.7622,-3.7689,-3.773,-3.7359,-3.7365,-3.7369,-3.7623,0,-3.7125,-3.7279,-3.7206,-3.7369,-3.7431,-3.7312,-3.7391,-3.7394,-3.7364,-3.7413,-3.738,-3.7438,-3.7326,-3.7336,-3.7404,-3.7374,-3.7504,-3.7354,-3.743,-3.7433,-3.7435,-3.7772,-3.7843,-3.8083,-3.7654,-3.7659,-3.7663,0,-3.7439,-3.7464,-3.7633,-3.761,-3.7633,-3.7706,-3.7734,-3.7783,-3.7783,-3.7756,-3.7775,-3.77,-3.7789,-3.7657,-3.778,-3.768,-3.7706,-3.7696,-3.7703,-3.7709,-3.7563,-3.7789,-3.8157,-3.8194,-3.7713,-3.7709,-3.7705,0,-3.7702,-3.7778,-3.7889,-3.7897,-3.7872,-3.7927,-3.7919,-3.7912,-3.7939,-3.7964,-3.798,-3.8016,-3.8036,-3.8066,-3.8004,-3.7913,-3.8136,-3.7998,-3.8117,-3.8119,-3.8171,-3.8169,-3.8551,-3.8186,-3.8185,-3.8185,-3.8184,0,-3.7991,-3.81,-3.8007,-3.8075,-3.8193,-3.8109,-3.8229,-3.8208,-3.8203,-3.8266,-3.8164,-3.8226,-3.8139,-3.8192,-3.8144,-3.8253,-3.8263,-3.8245,-3.8231,-3.8255,-3.8258,-3.8272,-3.8255,-3.8194,-3.8192,-3.819,-3.8189,0,-3.8306,-3.8247,-3.8361,-3.8327,-3.8322,-3.841,-3.8382,-3.8445,-3.8407,-3.8489,-3.8503,-3.8446,-3.8504,-3.8443,-3.8497,-3.8464,-3.8612,-3.8573,-3.8613,-3.8602,-3.8725,-3.8715,-3.9131,-3.9182,-3.8784,-3.8788,-3.8791,0,-3.8495,-3.8575,-3.855,-3.8585,-3.8583,-3.864,-3.8666,-3.8587,-3.8619,-3.8625,-3.8688,-3.8736,-3.8771,-3.8869,-3.8833,-3.8874,-3.8836,-3.8979,-3.8842,-3.8864,-3.884,-3.8837,-3.8845,-3.9008,-3.9013,-3.9016,-3.902,0,-3.8837,-3.8804,-3.8846,-3.8878,-3.8913,-3.8935,-3.8949,-3.8983,-3.8901,-3.8942,-3.8999,-3.9027,-3.9081,-3.9131,-3.9161,-3.9154,-3.9075,-3.9063,-3.9093,-3.9119,-3.9139,-3.9131,-3.869,-3.9054,-3.9051,-3.9048,-3.9046,-3.9045,-3.9095,-3.9161,-3.9154,-3.9204,-3.9206,-3.9222,-3.9279,-3.9248,-3.9294,-3.9332,-3.9282,-3.9353,-3.9351,-3.9383,-3.9386,-3.9441,-3.938,-3.9424,-3.9435,-3.9447,-3.9466,-3.9129,-3.9446,-3.9445,-3.9444,-3.9443,-3.9442,0,-3.9432,-3.9422,-3.9469,-3.9491,-3.9531,-3.945,-3.9462,-3.9501,-3.9565,-3.9569,-3.9605,-3.9672,-3.972,-3.9687,-3.9728,-3.9779,-3.9744,-3.9793,-3.9789,-3.9789,-3.9517,-3.9488,-3.9821,-3.9821,-3.9821,-3.9821,-3.9821,-3.9821,-3.9613,-3.9721,-3.9687,-3.9795,-3.9783,-3.9852,-3.9866,-3.988,-3.9883,-3.9961,-4.0,-3.9978,-3.9968,-4.0008,-4.0049,-4.0038,-4.0059,-4.0121,-4.0098,-3.9845,-3.9808,-3.9773,-3.9745,-4.0126,-4.0127,-4.0365,-4.0368,-4.0369]},{"header":{"parameterUnit":"m.s-1","parameterCategory":1,"la1":30.2991,"la2":30.254,"lo1":-89.0895,"lo2":-89.0444,"dy":0.0017,"dx":0.0017,"nx":28,"ny":28,"refTime":"2023-10-01T03:00:00:Z","depth":0,"parameterNumber":3,"parameterNumberName":"V-component_of_WINDS"},"data":[0,0,0,0,0,0,0,0,0,0,0,0,0,0,0,0,0,0,0,0,0,0,0,0,0,0,0,0,0,0,0,0,0,0,0,0,0,0,0,0,0,0,0,0,0,0,0,0,0,0,0,0,0,0,0,0,0,0,-0.4894,-0.4896,0,-0.5004,-0.5005,-0.5006,-0.5086,-0.5087,-0.5088,-0.5088,-0.52,-0.5202,-0.5204,0,0,0,0,0,0,0,0,0,0,0,0,0,-0.4753,-0.4756,-0.4894,-0.4896,-0.4897,-0.5003,-0.5005,-0.5006,-0.5086,-0.5087,-0.5088,-0.5089,-0.5199,-0.5202,-0.5205,0,0,0,0,0,0,0,0,0,0,0,0,0,-0.4834,-0.4756,-0.4894,-0.495,-0.4956,-0.5003,-0.5005,-0.5007,-0.5086,-0.5087,-0.5088,-0.5089,-0.5198,-0.5202,-0.5205,-0.5206,0,0,-0.5216,-0.5217,0,0,0,0,0,0,0,0,-0.4829,-0.4839,-0.494,-0.4946,-0.4953,-0.5033,-0.4996,-0.5073,-0.5086,-0.5037,-0.5088,-0.509,-0.5143,-0.5151,-0.517,-0.5211,-0.5216,-0.5216,-0.5218,-0.522,-0.5221,0,0,0,0,0,0,0,-0.4823,-0.4835,-0.4938,-0.4942,-0.4949,-0.4969,-0.4981,-0.5011,-0.5083,-0.5041,-0.5047,-0.5059,-0.5147,-0.5166,-0.5173,-0.5217,-0.5216,-0.5219,-0.5221,-0.5222,-0.5264,-0.5263,0,0,0,0,0,0,-0.4809,-0.4829,-0.4934,-0.4941,-0.4892,-0.497,-0.4985,-0.5006,-0.5083,-0.5095,-0.5058,-0.5062,-0.516,-0.5169,-0.5177,-0.5182,-0.522,-0.5223,-0.5225,-0.5265,-0.5263,-0.5262,0,0,0,0,0,0,-0.4806,-0.4818,-0.493,-0.4887,-0.4903,-0.4972,-0.4995,-0.5007,-0.5027,-0.5096,-0.5109,-0.5064,-0.5161,-0.5172,-0.5198,-0.5187,-0.5224,-0.5228,-0.5266,-0.5264,-0.5263,-0.5193,0,0,0,0,0,0,-0.4802,-0.4816,-0.4818,-0.4886,-0.4905,-0.4949,-0.4994,-0.5009,-0.5032,-0.5039,-0.5105,-0.5117,-0.5162,-0.5192,-0.5201,-0.5193,-0.523,-0.5267,-0.5265,-0.5263,-0.5197,-0.519,-0.5183,0,0,0,0,0,-0.4796,-0.4794,-0.4817,-0.483,-0.4908,-0.4948,-0.4959,-0.5011,-0.5031,-0.5033,-0.5077,-0.5115,-0.5187,-0.5194,-0.5205,-0.5198,-0.5268,-0.5266,-0.5263,-0.52,-0.5191,-0.5183,0,0,0,0,0,0,-0.4723,-0.4804,-0.4831,-0.4851,-0.4892,-0.4962,-0.4966,-0.5,-0.5037,-0.5041,-0.5105,-0.5119,-0.5138,-0.517,-0.5177,-0.5202,-0.5232,-0.5232,-0.518,-0.5172,-0.5165,-0.5157,-0.5233,0,0,0,0,0,-0.4708,-0.4735,-0.4804,-0.4815,-0.4834,-0.4896,-0.4916,-0.4952,-0.4998,-0.5015,-0.5061,-0.5103,-0.5136,-0.5156,-0.5189,-0.5201,-0.5217,-0.5202,-0.5195,-0.5189,-0.5188,-0.5196,-0.519,-0.5255,-0.5255,-0.5255,0,0,-0.468,-0.4728,-0.4741,-0.4801,-0.4838,-0.4863,-0.491,-0.4935,-0.4955,-0.5019,-0.5046,-0.5081,-0.5132,-0.5151,-0.5162,-0.5179,-0.5174,-0.5186,-0.5181,-0.5184,-0.5193,-0.5187,-0.5182,-0.5253,-0.5254,-0.5254,0,0,-0.4641,-0.468,-0.4693,-0.4728,-0.4782,-0.4823,-0.4825,-0.489,-0.4915,-0.4943,-0.4992,-0.5015,-0.507,-0.5104,-0.5128,-0.51,-0.5136,-0.5109,-0.5074,-0.5081,-0.5076,-0.5072,-0.5062,-0.5057,-0.5108,-0.5108,-0.5108,0,-0.4599,-0.464,-0.4695,-0.4717,-0.4742,-0.4801,-0.4814,-0.4845,-0.4907,-0.4923,-0.4941,-0.5009,-0.5048,-0.5075,-0.5068,-0.5086,-0.5091,-0.5102,-0.5073,-0.5069,-0.5066,-0.5057,-0.5053,-0.5104,-0.5105,-0.5105,-0.5105,0,-0.4585,-0.4612,-0.4615,-0.4673,-0.4699,-0.4716,-0.4773,-0.4792,-0.4826,-0.4864,-0.4891,-0.494,-0.4983,-0.4992,-0.5026,-0.5024,-0.5033,-0.5061,-0.5093,-0.5055,-0.5047,-0.5044,-0.5099,-0.51,-0.5101,-0.5102,0,0,-0.4504,-0.4591,-0.4592,-0.4618,-0.4681,-0.4703,-0.4722,-0.4765,-0.4779,-0.4819,-0.4837,-0.4881,-0.4906,-0.4934,-0.4972,-0.4978,-0.4952,-0.5005,-0.5007,-0.4994,-0.4952,-0.493,-0.4925,-0.4975,-0.4975,-0.4975,-0.4947,0,-0.4475,-0.4513,-0.4563,-0.4584,-0.4609,-0.4665,-0.4681,-0.4721,-0.4757,-0.4783,-0.4823,-0.4853,-0.4885,-0.4902,-0.491,-0.4953,-0.4944,-0.4956,-0.4992,-0.4993,-0.4978,-0.4922,-0.49,-0.4872,-0.4945,-0.4944,-0.4944,0,-0.4447,-0.4483,-0.4507,-0.4567,-0.4579,-0.4593,-0.4636,-0.466,-0.4706,-0.4732,-0.4761,-0.4802,-0.4824,-0.4852,-0.4883,-0.489,-0.4907,-0.493,-0.493,-0.4936,-0.4966,-0.4926,-0.4864,-0.486,-0.494,-0.494,-0.494,0,-0.4385,-0.4441,-0.4462,-0.4483,-0.4553,-0.4561,-0.4591,-0.4638,-0.466,-0.4696,-0.4711,-0.475,-0.4771,-0.48,-0.4849,-0.4865,-0.4875,-0.4907,-0.4897,-0.4895,-0.4897,-0.4896,-0.4837,-0.4907,-0.4907,-0.4907,-0.4907,0,-0.4348,-0.436,-0.4435,-0.4448,-0.4463,-0.4519,-0.4532,-0.4566,-0.4607,-0.4627,-0.4678,-0.4695,-0.4759,-0.4784,-0.4823,-0.4843,-0.4852,-0.4873,-0.4883,-0.4869,-0.4866,-0.4882,-0.4885,-0.4906,-0.4907,-0.4907,-0.4907,0,-0.4283,-0.4333,-0.436,-0.4423,-0.4439,-0.4447,-0.4502,-0.4516,-0.4554,-0.4579,-0.4588,-0.4648,-0.468,-0.4731,-0.4779,-0.4805,-0.4817,-0.4834,-0.4802,-0.4808,-0.4795,-0.4795,-0.4744,-0.474,-0.4812,-0.4811,-0.481,0,-0.4256,-0.4266,-0.4331,-0.4348,-0.4375,-0.4402,-0.4424,-0.4479,-0.4501,-0.4553,-0.456,-0.4596,-0.4628,-0.4676,-0.4723,-0.4759,-0.4778,-0.4757,-0.4784,-0.4768,-0.4777,-0.4776,-0.4777,-0.4751,-0.475,-0.4749,-0.4749,0,-0.4203,-0.4227,-0.4257,-0.4295,-0.4321,-0.4354,-0.4389,-0.44,-0.4463,-0.4484,-0.4517,-0.4541,-0.4589,-0.4623,-0.4666,-0.4696,-0.4732,-0.474,-0.4739,-0.4725,-0.4705,-0.4716,-0.4785,-0.4741,-0.4742,-0.4742,-0.4743,-0.4743,-0.4156,-0.4168,-0.4214,-0.4246,-0.4278,-0.431,-0.4326,-0.4365,-0.4394,-0.4437,-0.4467,-0.4498,-0.4543,-0.4603,-0.4631,-0.4656,-0.4672,-0.4671,-0.4671,-0.467,-0.4665,-0.4701,-0.4664,-0.4664,-0.4664,-0.4664,-0.4665,0,-0.4106,-0.4138,-0.4166,-0.4214,-0.4238,-0.427,-0.431,-0.4329,-0.4355,-0.4393,-0.4423,-0.446,-0.4494,-0.4543,-0.458,-0.459,-0.4608,-0.4598,-0.4598,-0.4604,-0.4648,-0.4645,-0.4583,-0.4583,-0.4583,-0.4583,-0.4583,-0.4583,-0.4083,-0.4103,-0.4132,-0.4169,-0.4202,-0.4232,-0.4252,-0.4281,-0.4312,-0.4351,-0.4379,-0.441,-0.4453,-0.4493,-0.4525,-0.4539,-0.455,-0.4535,-0.4553,-0.4594,-0.4601,-0.4608,-0.4606,-0.4537,-0.4537,-0.4508,-0.4508,-0.4507]}]]